FLOCK 3P-3

Last updated on Feb. 14, 2018, 4:20 p.m. UTC

1 41968U 17008W   18044.86606730  .00001312  00000-0  57264-4 0  9992
2 41968  97.4654 110.3317 0009881  70.1367 290.0934 15.23902954 55244
UTC
Height (km)
Latitude
Longitude
Inclination
Orbital Period
UTC large
Height (km)
Speed (km/s)
/
Latitude / Longitude
Inclination (degrees)
Orbital Period (minutes)
Azimuth
Elevation
Range (km)
Doppler Factor
iOS Compass Heading
iOS Angle